Orbital Elements at Epoch 2459200.5 (2020-Dec-17.0) TDB
Reference: JPL 17 (heliocentric ecliptic J2000)
Element | Value | Uncertainty (1-sigma) | Units |
e | .1778597727892961 | 4.94e-08 | |
a | 2.44597684762793 | 9.8805e-09 | au |
q | 2.010935961260947 | 1.2326e-07 | au |
i | 2.144556602072499 | 4.6092e-06 | deg |
node | 175.7507326515275 | 0.00014726 | deg |
peri | 126.1358624731372 | 0.00014807 | deg |
M | 35.51254392177056 | 1.3647e-05 | deg |
tp | 2459062.666043451857 (2020-Aug-01.16604345) | 5.2972e-05 | TDB |
period | 1397.259077430165 3.83 | 8.4663e-06 2.318e-08 | d yr |
n | .2576472794595194 | 1.5611e-09 | deg/d |
Q | 2.881017733994912 | 1.1638e-08 | au |
|
| | Orbit Determination Parameters
Additional Information
|